User: anonymous   Login
Location: Unspecified
(0.0000°N, 0.0000°E)
Time: 02:22:43
(UTC+00:00)
Language:

CLOUDSAT - Orbit

View from above orbital plane
View from above orbital plane
View from above satellite
View from above satellite

Ground track
Ground track

The orbit data is extracted from the following two-line orbital elements,

1 29107U 06016A   17146.59561659 +.00000036 +00000-0 +17940-4 0  9991
2 29107 098.2019 090.8878 0001930 099.3540 260.7877 14.57119824589127
Epoch (UTC): 26 May 2017 14:17:41
Eccentricity: 0.0001930
inclination: 98.2019°
perigee height: 701 km
apogee height: 704 km
right ascension of ascending node: 90.8878°
argument of perigee: 99.3540°
revolutions per day: 14.57119824
mean anomaly at epoch: 260.7877°
orbit number at epoch: 58912

The dashed part of the orbit path shows where the satellite is in the earth's shadow,  

DLR